User: anonymous   Login
Location: Fort Wayne
(41.1310°N, 85.1290°W)
Time: 03:40:08
(UTC-05:00)
Language:

Meteor 2-10 Rocket - Orbit

View from above orbital plane
View from above orbital plane
View from above satellite
View from above satellite

Ground track
Ground track

The orbit data is extracted from the following two-line orbital elements,

1 14453U 83109B   17018.23325203  .00000048  00000-0  13656-4 0  9992
2 14453  81.1661 257.1502 0105623 137.0985 223.8496 14.24665396726177
Epoch (UTC): 18 January 2017 05:35:52
Eccentricity: 0.0105623
inclination: 81.1661°
perigee height: 734 km
apogee height: 885 km
right ascension of ascending node: 257.1502°
argument of perigee: 137.0985°
revolutions per day: 14.24665396
mean anomaly at epoch: 223.8496°
orbit number at epoch: 72617

The dashed part of the orbit path shows where the satellite is in the earth's shadow,  

DLR